Regional Weather Roundup
Issued by NWS

Home | Current Version | Previous Version | Text Only | Print | Product List | Glossary Off
Versions: 1 2 3 4 5 6 7 8 9 10 11 12 13 14 15 16 17 18 19 20 21 22 23 24 25 26 27 28 29 30 31 32 33 34 35 36 37 38 39 40 41 42 43 44 45 46 47 48 49 50

000
ASUS44 KMEG 060510
RWRTN
TENNESSEE HOURLY STATE WEATHER ROUNDUP
NATIONAL WEATHER SERVICE MEMPHIS TN
1200 AM CDT MON JUL 06 2015

TNZ002-004-019-021-049-052-054-088>092-060600-
WEST TENNESSEE

CITY           SKY/WX    TMP DP  RH WIND       PRES   REMARKS
MEMPHIS INTL   MOCLDY    73  69  87 SW8       30.07S
NWS MEMPHIS      N/A     74 N/A N/A MISG        N/A
JACKSON        CLEAR     70  68  93 S3        30.07F
DYERSBURG        N/A    N/A N/A N/A MISG        N/A
PARIS          CLEAR     70  68  94 CALM      30.07F
LEXINGTON      CLEAR     70  70 100 CALM      30.07F
$$

TNZ008-025-027-028-033-062-065-066-060600-
NORTH MIDDLE TENNESSEE

CITY           SKY/WX    TMP DP  RH WIND       PRES   REMARKS
NASHVILLE      CLEAR     72  71  97 CALM      30.08F FOG
CLARKSVILLE    CLEAR     71  68  90 CALM      30.07F FOG
SMYRNA         PTCLDY    72  70  93 CALM      30.08F FOG
COOKEVILLE     CLEAR     68  68 100 CALM      30.10F
CROSSVILLE     PTCLDY    68  64  87 CALM      30.15F FOG
$$

TNZ061-075-076-078-094-096-097-060600-
SOUTH MIDDLE TENNESSEE

CITY           SKY/WX    TMP DP  RH WIND       PRES   REMARKS
FAYETTEVILLE   CLEAR     68  66  94 SE3       30.11S
TULLAHOMA      CLEAR     70  66  88 CALM      30.13S
WINCHESTER     CLEAR     68  68 100 CALM      30.12S
MCMINNVILLE    CLOUDY    70  70 100 CALM      30.11F VSB 1/4
COLUMBIA       CLEAR     72  72 100 CALM      30.08F
SHELBYVILLE    CLEAR     72  70  94 CALM        N/A
$$

TNZ017-018-042-046-047-060600-
NORTHEAST TENNESSEE

CITY           SKY/WX    TMP DP  RH WIND       PRES   REMARKS
TRI CITIES     LGT RAIN  68  67  96 S7        30.10F
ELIZABETHTON   CLOUDY    66  64  94 W6        30.11F
$$

TNZ012-013-036-069-073-074-060600-
CENTRAL EAST TENNESSEE

CITY           SKY/WX    TMP DP  RH WIND       PRES   REMARKS
KNOXVILLE      CLOUDY    70  66  87 SW5       30.10F
OAK RIDGE      CLOUDY    71  68  90 CALM      30.12S
GATLINBURG     MOCLDY    70  63  78 CALM      30.10S
MORRISTOWN     PTCLDY    68  68 100 W3        30.12F
$$

TNZ083-085-099-060600-
SOUTHEAST TENNESSEE

CITY           SKY/WX    TMP DP  RH WIND       PRES   REMARKS
CHATTANOOGA    PTCLDY    72  68  87 CALM      30.11S
$$

SKY/WX REPORTED AS FAIR MEANS FEW OR NO CLOUDS BELOW
12 THOUSAND FEET.




USA.gov is the U.S. government's official web portal to all federal, state and local government web resources and services.